#timestamp,LO_Frequency,Hit,StdDev 
1696496415.1,286047000.5,N
1696496435.9,286047000.7,N
1696496455.7,286047000.9,N
1696496475.6,286046998.5,N
1696496495.4,286047001.1,N
1696496515.2,286047001.0,N
1696496535.1,286046999.8,N
1696496536.0,286046999.8,N
1696496555.8,286047000.0,N
1696496575.6,286047002.8,N
1696496595.5,286047002.1,N
1696496615.3,286046999.7,N
1696496635.2,286047002.8,N
1696496655.9,286047002.8,N
1696496675.7,286047002.8,N
1696496695.6,286047002.7,N
1696496715.4,286047000.0,N
1696496735.2,286047000.3,N
1696496755.1,286046998.6,N
1696496756.0,286046998.6,N
1696496775.8,286046996.8,N
1696496795.7,286046996.8,N
1696496815.5,286046997.5,N
1696496835.3,286046995.3,N
1696496855.2,286046995.8,N
1696496875.0,286046995.3,N
1696496875.9,286046995.3,N
1696496895.7,286046995.7,N
1696496915.6,286046996.2,N
1696496935.4,286046996.4,N
1696496955.3,286046993.8,N
1696496975.1,286046995.9,N
1696496995.8,286046996.0,N
1696497015.7,286046995.1,N
1696497035.5,286046997.5,N
1696497055.3,286046996.0,N
1696497075.2,286046995.7,N
1696497095.0,286046996.0,N
1696497095.9,286046996.0,N
1696497115.8,286046995.7,N
1696497135.6,286046994.1,N
1696497155.4,286046993.5,N
1696497175.3,286046994.7,N
1696497195.1,286046994.7,N
1696497215.9,286046991.8,Y
1696497235.7,286046995.0,P
1696497255.5,286046997.8,N
1696497275.4,286046995.0,P
1696497295.2,286046995.5,Y
1696497315.0,286047001.2,P
1696497315.9,286047001.2,N
1696497335.8,286047000.5,N
1696497355.6,286047000.1,N
1696497375.5,286047000.2,N
1696497395.3,286047000.6,N
1696497415.1,286046998.5,N
1696497435.9,286047000.9,N
1696497455.7,286046998.5,N
1696497475.5,286046998.2,N
1696497495.4,286046998.9,N
1696497515.2,286046998.6,N
1696497535.1,286046997.2,N
1696497536.0,286046997.2,N
1696497555.8,286046997.8,N
1696497575.6,286046997.8,N
1696497595.5,286046996.7,N
1696497615.3,286046996.9,N
1696497635.1,286046996.5,N
1696497655.9,286046999.4,N
1696497675.7,286046999.3,N
1696497695.6,286046999.6,N
1696497715.4,286046997.6,N
1696497735.2,286046997.5,N
1696497755.1,286046997.8,N
1696497756.0,286046997.8,N
1696497775.8,286046997.7,N
1696497795.7,286046997.8,N
1696497815.5,286046996.6,N
1696497835.3,286046996.8,N
1696497855.2,286046997.4,N
1696497875.9,286046997.7,N
1696497895.7,286046995.3,Y
1696497915.6,286046995.3,P
1696497935.4,286046998.0,N
1696497955.3,286046995.1,P
1696497975.1,286046995.1,Y
1696497976.0,286046995.1,P
1696497995.8,286047001.1,N
1696498015.7,286047000.9,N
1696498035.5,286047002.6,N
1696498055.4,286047000.7,N
1696498075.2,286046999.9,N
1696498095.0,286047002.6,N
1696498095.9,286047002.6,N
1696498115.8,286047002.7,N
1696498135.6,286046999.7,N
1696498155.4,286047002.1,N
1696498175.3,286047001.4,N
1696498195.1,286047001.4,N
1696498215.9,286047002.1,N
1696498235.7,286046999.7,N
1696498255.5,286047000.7,N
1696498275.4,286047000.9,N
1696498295.2,286047001.1,N
1696498315.1,286047000.8,N
1696498316.0,286047000.8,N
1696498335.8,286047000.5,N
1696498355.9,286047000.6,N
1696498375.7,286047000.3,N
1696498395.6,286046999.7,N
1696498415.4,286046998.6,N
1696498435.3,286047000.0,N
1696498455.1,286047000.9,N
1696498456.0,286047000.9,N
1696498475.8,286046999.9,N
1696498495.7,286047000.6,N
1696498515.5,286047000.9,N
1696498535.3,286047001.2,N
1696498555.2,286047000.4,N
1696498575.0,286047000.6,N
1696498575.9,286047000.6,N
1696498595.8,286047000.3,N
1696498615.6,286046998.4,N
1696498635.4,286046998.2,N
1696498655.3,286046998.6,N
1696498675.1,286047000.7,N
1696498695.8,286046998.1,N
1696498715.7,286047000.8,N
1696498735.5,286046998.9,N
1696498755.4,286046998.3,N
1696498775.2,286046998.6,N
1696498795.0,286046998.4,N
1696498795.9,286046998.4,N
1696498815.8,286046998.5,N
1696498835.6,286046998.8,N
1696498855.5,286046996.6,Y
1696498875.3,286046997.0,P
1696498895.1,286046997.3,N
1696498915.9,286046997.3,N
1696498935.7,286046999.6,N
1696498955.5,286046998.8,N
1696498975.4,286046998.9,N
1696498995.2,286046998.1,N
1696499015.1,286046998.6,N
1696499016.0,286046998.6,N
1696499035.8,286046998.9,N
1696499055.6,286046999.1,N
1696499075.5,286046996.7,Y
1696499095.3,286047000.7,P
1696499115.2,286047000.3,N
1696499135.9,286047000.7,N
1696499155.7,286047000.6,N
1696499175.6,286047000.5,N
1696499195.4,286047000.5,N
1696499215.2,286047000.6,N
1696499235.1,286046999.9,N
1696499236.0,286046999.9,N
1696499255.8,286046999.9,N
1696499275.7,286047001.0,N
1696499295.5,286046998.1,Y
1696499315.3,286047000.6,P
1696499335.2,286046999.7,N
1696499355.0,286047000.4,N
1696499355.9,286047000.4,N
1696499375.8,286047000.8,N
1696499395.6,286046998.1,Y
1696499415.4,286046998.5,P
1696499435.3,286047000.9,N
1696499455.1,286046999.4,N
1696499475.9,286046997.0,Y
1696499495.7,286046999.3,P
1696499515.5,286046998.6,P
1696499535.4,286047000.7,N
1696499555.2,286047011.9,Y
1696499575.0,286047000.6,P
1696499575.9,286047000.6,N
1696499595.8,286047001.2,N
1696499615.6,286047000.6,N
1696499635.5,286046999.7,N
1696499655.3,286047002.7,Y
1696499675.1,286047000.2,P
1696499695.9,286046999.7,P
1696499715.7,286047002.3,P
1696499735.5,286047000.6,N
1696499755.4,286047000.6,N
1696499775.2,286047001.0,N
1696499795.1,286047000.7,N
1696499796.0,286047000.7,N
1696499815.8,286047001.0,N
1696499835.6,286047000.5,N
1696499855.5,286047001.2,N
1696499875.3,286047000.0,N
1696499895.2,286047001.2,N
1696499915.9,286047000.8,N
1696499935.7,286047000.6,N
1696499955.6,286047001.0,N
1696499975.4,286047001.2,N
1696499995.2,286047000.6,N
